Flag for U.S.A. Weather past 2 weeks in Sacramento, California, U.S.A.

Now
69 °F

Sunny.


Feels Like: 69 °F
Forecast: 38 / 72 °F
Wind: 5 mph from North

Location: Sacramento Executive Airport

Current Time: Mar 6, 2015 at 1:50:07 PM

Latest Report: Mar 6, 2015 at 12:53 PM


Visibility: 10 mi

Pressure: 30.22 "Hg

Humidity: 39%

Dew point: 43 °F

Location of SacramentoLocation

Historic Weather in Sacramento — Graph

°F

Sacramento temperature yesterday

Maximum temperature yesterday: 69 °F (at 1:53 PM)
Minimum temperature yesterday: 41 °F (at 4:53 AM)
Average temperature yesterday: 54 °F

Past Weeks' High & Low Weather Summary

 TemperatureHumidityPressure
High73 °F (Feb 26, 2:53 PM)100% (Feb 19, 11:02 PM)30.36 "Hg (Feb 19, 11:02 PM)
Low33 °F (Feb 24, 4:53 AM)17% (Feb 24, 2:53 PM)29.66 "Hg (Feb 27, 4:53 PM)
Average53 °F65%30.02 "Hg
* Reported Feb 19 12:00 Noon — Mar 6 11:53 AM, Sacramento, Weather by CustomWeather, © 2015

Note: Actual official high and low records may vary slightly from our data, if they occured in-between our weather recording intervals... More about our weather records

Advertising

Sacramento weather history for previous 24 hours

 ConditionsComfort  
Time TempWeatherWind HumidityBarometerVisibility
11:53 AM
Fri, Mar 6
66 °FSunny.5 mph42%30.25 "Hg10 mi
10:53 AM63 °FSunny.3 mph47%30.28 "Hg10 mi
9:53 AM59 °FSunny.No wind56%30.29 "Hg10 mi
8:53 AM53 °FSunny.No wind72%30.30 "Hg10 mi
7:53 AM47 °FSunny.No wind83%30.30 "Hg10 mi
6:53 AM41 °FFog.No wind93%30.29 "Hg6 mi
5:53 AM41 °FClear.No wind89%30.29 "Hg10 mi
4:53 AM42 °FClear.No wind89%30.28 "Hg10 mi
3:53 AM41 °FClear.No wind89%30.27 "Hg10 mi
2:53 AM43 °FClear.No wind86%30.28 "Hg10 mi
1:53 AM44 °FClear.No wind82%30.29 "Hg10 mi
12:53 AM45 °FClear.No wind76%30.29 "Hg10 mi
11:53 PM
Thu, Mar 5
48 °FClear.No wind74%30.29 "Hg10 mi
10:53 PM52 °FClear.No wind64%30.29 "Hg10 mi
9:53 PM51 °FClear.No wind66%30.29 "Hg10 mi
8:53 PM53 °FClear.No wind59%30.28 "Hg10 mi
7:53 PM55 °FClear.No wind53%30.27 "Hg10 mi
6:53 PM58 °FClear.No wind46%30.27 "Hg10 mi
5:53 PM63 °FSunny.7 mph38%30.27 "Hg10 mi
4:53 PM68 °FSunny.8 mph33%30.27 "Hg10 mi
3:53 PM69 °FSunny.6 mph35%30.27 "Hg10 mi
2:53 PM69 °FSunny.No wind33%30.28 "Hg10 mi
1:53 PM69 °FSunny.3 mph35%30.29 "Hg10 mi
Weather by CustomWeather, © 2015

See weather overviewHow to use our weather pages